Back to catalog

STARLINK-33545

AliveCommunicationsVLEO
NORAD 62101·PAYLOAD·🇺🇸 United States

Launched Nov 25, 2024 from Cape Canaveral Space Force Station

Loading…

Next Passes (next 24 hours)

TLE

FreshSource: CelesTrak SupGP

Epoch: Sep 14, 2026, 22:26 UTC

1 62101C 24220P   26257.93520833  .00007859  00000+0  28465-3 0  2578
2 62101  42.9996 216.5330 0001210 261.5056 210.1414 15.27577216    17

Track STARLINK-33545 in real time with AllMySat

Download on the App Store